Regional Weather Roundup
Issued by NWS

Home | Current Version | Previous Version | Text Only | Print | Product List | Glossary On
Versions: 1 2 3 4 5 6 7 8 9 10 11 12 13 14 15 16 17 18 19 20 21 22 23 24 25 26 27 28 29 30 31 32 33 34 35 36 37 38 39 40 41 42 43 44 45 46 47 48 49 50
000
ASUS44 KEWX 200702
RWRTX
SOUTH TEXAS REGIONAL WEATHER ROUNDUP
NATIONAL WEATHER SERVICE AUSTIN/SAN ANTONIO TX
200 AM CDT SUN APR 20 2014

NOTE: "FAIR" INDICATED FEW OR NO CLOUDS BELOW 12,000 FEET WITH NO
SIGNIFICANT WEATHER AND/OR OBSTRUCTIONS TO VISIBILITY.

* - THESE STATIONS ARE NOT NWS OR FAA STATIONS...AND ARE NOT SUBJECT
    TO NWS AND FAA QUALITY CONTROL.

TXZ171-172-183>190-200800-
TEXAS HILL COUNTRY AND EDWARDS PLATEAU

CITY           SKY/WX    TMP DP  RH WIND       PRES   REMARKS
JUNCTION       CLOUDY    69  54  58 SE9       30.09F
*LLANO         CLOUDY    68  55  64 CALM      30.14F
BURNET         CLOUDY    63  55  75 SE6       30.14S
*HORSESHOE BAY CLOUDY    66  55  68 CALM      30.10S
*KERRVILLE     CLOUDY    65  56  71 SE5       30.12R
*FREDERICKSBRG CLOUDY    65  54  67 S5        30.11S
*ROCKSPRINGS   CLOUDY    66  55  68 SE15      30.12S
*BOERNE STAGE  CLOUDY    64  54  68 SE8       30.12F
*CASTROVILLE   CLOUDY    67  57  70 SE9       30.12S
HONDO          CLOUDY    70  57  63 SE13      30.10F
*UVALDE        CLOUDY    69  59  70 SE14      30.07F
DEL RIO        LGT RAIN  71  62  73 SE16G24   30.03R
LAUGHLIN AFB   CLOUDY    70  62  76 S18       30.05R HAZE
CARRIZO SPRGS  CLOUDY    70  61  73 SE9       30.06R
$$

TXZ173-191>194-202-209-217>225-228-200800-
CENTRAL AND SOUTH CENTRAL TEXAS

CITY           SKY/WX    TMP DP  RH WIND       PRES   REMARKS
GEORGETOWN     PTCLDY    64  55  72 S3        30.13S
AUSTIN/BERGSTM PTCLDY    59  56  89 CALM      30.12S
AUSTIN/MABRY   PTCLDY    63  57  81 VRB5      30.13S
*AUSTIN/EXEC   CLOUDY    61  57  88 CALM      30.13S
*LAGO VISTA    PTCLDY    64  57  77 S8        30.13F
SAN MARCOS     MOCLDY    59  52  77 SE6       30.14S
NEW BRAUNFELS  CLOUDY    65  59  81 S9        30.11F
RANDOLPH AFB   NOT AVBL
PT SAN ANTONIO CLOUDY    66  59  78 SE8       30.09F
SAN ANTONIO    CLOUDY    67  59  75 SE8       30.12S
STINSON FIELD  CLOUDY    67  60  78 SE8       30.09F
*PLEASANTON    CLOUDY    67  60  76 SE8       30.11S
*LA GRANGE     MOCLDY    62  60  94 S5        30.12S
*GIDDINGS      PTCLDY    61  57  84 S5        30.17S
*GONZALES      PTCLDY    60  59  96 E3        30.11F
$$

TXZ163>164-176>182-195>201-210>213-226-227-235-200800-
SOUTHEAST TEXAS

CITY           SKY/WX    TMP DP  RH WIND       PRES   REMARKS
COLLEGE STN    PTCLDY    63  59  87 S5        30.14R
*BRYAN         PTCLDY    64  60  87 S6        30.14S
*CALDWELL      PTCLDY    63  59  88 CALM      30.17R
*CROCKETT      PTCLDY    63  61  94 CALM      30.18S
*BRENHAM       PTCLDY    62  59  91 S5        30.15S
HUNTSVILLE     PTCLDY    62  57  83 S5        30.15R
CONROE         PTCLDY    57  55  93 CALM      30.15F
HOUSTON BUSH   MOCLDY    62  60  93 S3        30.15S
HOUSTON HOBBY  MOCLDY    62  60  93 CALM      30.14F
*HOUSTON SW AP FOG       60  60 100 S3        30.16S VSB 1/4
PEARLAND       FOG       59  56  89 NE3       30.16S VSB 3/4
HOUSTON HOOKS  CLEAR     61  61 100 CALM      30.15S FOG
ELLINGTON FLD  NOT AVBL
SUGAR LAND     CLOUDY    65  63  93 S7        30.14F
*HOUSTON EXEC  CLOUDY    64  64 100 SE7       30.16S FOG
*CLEVELAND MUN CLEAR     58  58  97 CALM      30.16S
*WHARTON       FOG       58  57  97 CALM      30.15F VSB 1/4
$$

TXZ214>216-236>238-200800-
THE UPPER TEXAS COAST

CITY           SKY/WX    TMP DP  RH WIND       PRES   REMARKS
*ORANGE        MOCLDY    59  59 100 CALM      30.17R
PORT ARTHUR    MOCLDY    61  59  93 W3        30.15R
GALVESTON      MOCLDY    66  64  93 S7        30.16S
ANGLETON       FOG       57  57 100 CALM      30.14F VSB 1/4
*BAY CITY      FOG       60  60  99 CALM      30.14F VSB<1/4
PALACIOS       PTCLDY    65  63  93 SE7       30.13F
$$

TXZ229>234-239>247-200800-
TEXAS COASTAL BEND AND RIO GRANDE PLAINS

CITY           SKY/WX    TMP DP  RH WIND       PRES   REMARKS
VICTORIA       PTCLDY    62  61  96 E7        30.12F FOG
*BEEVILLE      CLOUDY    67  65  91 SE9       30.09F
ROCKPORT       CLOUDY    68  65  90 SE13      30.10F
*PORT ARANSAS  PTCLDY    67  67 100 SE8       30.10F
*PORT LAVACA   PTCLDY    64  62  93 SE6       30.12F
*INGLESIDE     CLOUDY    69  66  91 SE10      30.10F
CORPUS CHRISTI CLOUDY    69  64  84 SE9       30.09F
CORPUS NAS     CLOUDY    69  66  90 SE15      30.08F
*ROBSTOWN      CLOUDY    69  65  87 SE10      30.09F
ALICE          CLOUDY    68  64  87 SE10      30.07F
KINGSVILLE NAS NOT AVBL
COTULLA        CLOUDY    69  61  75 SE15      30.07S
*FAITH RANCH   CLOUDY    72  61  68 SE14      30.05S
LAREDO         CLOUDY    71  62  73 SE12      30.07S
$$

TXZ248>255-200800-
DEEP SOUTH TEXAS

CITY           SKY/WX    TMP DP  RH WIND       PRES   REMARKS
BROWNSVILLE    CLOUDY    70  66  87 SE12      30.05F
PORT ISABEL    CLOUDY    72  66  81 SE13      30.05F
*SOUTH PADRE     N/A     70  68  94 MISG      30.06F
HARLINGEN      MOCLDY    69  65  86 SE9       30.04F
*HEBBRONVILLE  CLOUDY    68  63  85 SE13      30.06F
MCALLEN        MOCLDY    69  65  86 E12       30.04F
*WESLACO       MOCLDY    69  64  83 SE7       30.04F
FALFURRIAS     CLOUDY    70  64  83 E9        30.07F
EDINBURG       CLOUDY    69  64  83 E8        30.05F
*ZAPATA        CLOUDY    71  62  73 E12G18    30.03F
$$

TXZ213>215-236>238-242>244-246-247-251-254-255-200800-
CMAN STATIONS

STATION/POSITION TIME  TEMP    WIND        PRES    WAVE
                       AIR SEA DIR/SP/G            HT/PER
                 (UTC) (F)     (DEG/KT/KT) (MB)    (FT/S)
SABINE PASS      0600   63 67  280/  3/  5 1020.8
SEA RIM ST PARK  0600   65     250/  5/  6 1021.4
NORTH JETTY/GLS  0600   67 72  220/  8/ 10   N/A
EAGLE POINT      0600   66 64  230/  4/  6 1020.8
MORGANS POINT    0600   66 65  220/  2/  4   N/A
MISSION/ARANSAS  0600   69     120/ 10     1021.0
PORT O`CONNOR    0600          120/  9/ 11   N/A
PORT ARANSAS     0600   68 68  100/ 11/ 12 1019.8
MALAQUITE BEACH  0600   68 70  100/ 12/ 14 1018.4
BAFFIN BAY       0600   69 69  110/ 12/ 14 1018.8
PORT ISABEL      0600   70 71  130/ 10/ 13 1018.4
$$

GMZ080-GMZ150>470-200800-
OFFSHORE BUOY REPORTS

STATION/POSITION TIME  TEMP    WIND        PRES    WAVE
                       AIR SEA DIR/SP/G            HT/PER
                 (UTC) (F)     (DEG/KT/KT) (MB)    (FT/S)
20 E GALVESTON   0700   67 67  210/  8/  8 1020.7    1/ 8
35 NE PT MANSFLD 0700   69 67  110/ 12/ 14 1018.8    3/ 4
$$



USA.gov is the U.S. government's official web portal to all federal, state and local government web resources and services.